Вернуться в каталог

CZ-6A DEB

АктивенSSO
NORAD 54270·DEBRIS·🇨🇳 China

Запущен Nov 11, 2022 с Taiyuan Satellite Launch Center

Loading…

Ближайшие Пролёты (ближайшие 24 часа)

TLE

СвежийSource: Space-Track

Эпоха: Sep 14, 2026, 22:43 UTC

1 54270U 22151M   26257.94711144  .00000100  00000-0  90038-4 0  9997
2 54270  98.9060 243.4026 0084635 145.4098 215.2615 14.02382399196009

Отслеживайте CZ-6A DEB в реальном времени с AllMySat

Download on the App Store